Location: The Stocker AstroScience Center
(25.7579°N, 80.3725°W)
Time: 04:42:40

ISS - Pass Details

Date: 02 March 2018
Orbit: 403 x 406 km, 51.6° (Epoch: 21 March)

Event Time Altitude Azimuth Distance (km) Brightness Sun altitude
Rises 04:32:54 0° 245° (WSW) 2,314 - -30.2°
Reaches altitude 10° 04:35:13 10° 259° (W) 1,456 - -29.7°
Maximum altitude 04:37:57 24° 316° (NW) 880 - -29.1°
Drops below altitude 10° 04:40:42 10° 13° (NNE) 1,459 - -28.5°
Exits shadow 04:41:53 - 22° (NNE) 1,887 -0.1 -28.2°
Sets 04:43:02 0° 28° (NNE) 2,320 0.5 -28.0°
